Barcelona, Spain

7:07 PM CEST on August 14, 2018 (GMT +0200)
El Prat

Weather History for LEBL - February, 2018

Change the Weather History Date:

Thursday, February 15, 2018

  Actual Average Record
Temperature  
Mean Temperature 53 °F -  
Max Temperature 62 °F 57 °F 71 °F (2007)
Min Temperature 44 °F 43 °F 35 °F (1999)
Degree Days  
Heating Degree Days 12    
Growing Degree Days 3 (Base 50)    
Moisture  
Dew Point 46 °F    
Average Humidity 79    
Maximum Humidity 94    
Minimum Humidity 51    
Precipitation  
Precipitation 0.00 in 0.06 in - ()
Sea Level Pressure  
Sea Level Pressure 30.17 in    
Wind  
Wind Speed 7 mph ()    
Max Wind Speed 13 mph    
Max Gust Speed -    
Visibility 7.2 miles    
Events      
Averages and records for this station are not official NWS values.
T = Trace of Precipitation, MM = Missing Value Source: Averaged Metar Reports

Daily Weather History Graph

Daily Weather History Graph

Search for Another Location

Airport or City:

Astronomy

Feb. 15, 2018 Rise Set
Actual Time 7:46 AM CET 6:25 PM CET
Civil Twilight 7:18 AM CET 6:53 PM CET
Nautical Twilight 6:46 AM CET 7:26 PM CET
Astronomical Twilight 6:14 AM CET 7:58 PM CET
Moon 7:36 AM CET (2/15) 6:08 PM CET (2/15)
Length of Visible Light 11h 35m
Length of Day
10h 38m
Waning Crescent, 0% of the Moon is Illuminated
Feb 15
Waning Crescent
Feb 15
New
Feb 23
First Quarter
Mar 2
Full
Mar 9
Last Quarter

Hourly Weather History & Observations

Time (CET) Temp. Windchill Dew Point Humidity Pressure Visibility Wind Dir Wind Speed Gust Speed Precip Events Conditions
12:00 AM 44.6 °F 43.1 °F 41.0 °F 87% 30.06 in 6.2 mi NNW 3.5 mph - N/A   Partly Cloudy
12:30 AM 44.6 °F 42.2 °F 41.0 °F 87% 30.06 in 6.2 mi NNW 4.6 mph - N/A   Partly Cloudy
1:00 AM 45 °F - 42 °F 84% 30.09 in 6 mi North 6.9 mph - -   Scattered Clouds
1:00 AM 44.6 °F 42.2 °F 41.0 °F 87% 30.06 in 6.2 mi NNW 4.6 mph - N/A   Partly Cloudy
1:30 AM 44.6 °F 41.4 °F 41.0 °F 87% 30.06 in 6.2 mi NW 5.8 mph - N/A   Partly Cloudy
2:00 AM 45 °F - 42 °F 83% 30.09 in 6 mi North 6.9 mph - -   Mist
2:00 AM 44.6 °F - 41.0 °F 87% 30.09 in 5.6 mi Variable 2.3 mph - N/A   Scattered Clouds
2:30 AM 44.6 °F 41.4 °F 41.0 °F 87% 30.09 in 5.6 mi NW 5.8 mph - N/A   Partly Cloudy
3:00 AM 45 °F - 42 °F 85% 30.10 in 7 mi North 10.4 mph - -   Mist
3:00 AM 44.6 °F 39.2 °F 41.0 °F 87% 30.09 in 5.6 mi NNW 10.4 mph - N/A   Partly Cloudy
3:30 AM 46.4 °F 41.5 °F 41.0 °F 81% 30.09 in 6.2 mi NNW 10.4 mph - N/A   Partly Cloudy
4:00 AM 46 °F - 41 °F 78% 30.11 in 9 mi North 9.2 mph - -   Scattered Clouds
4:00 AM 46.4 °F 41.5 °F 41.0 °F 81% 30.09 in 6.2 mi NNW 10.4 mph - N/A   Partly Cloudy
4:30 AM 44.6 °F 39.2 °F 41.0 °F 87% 30.09 in 6.2 mi NNW 10.4 mph - N/A   Partly Cloudy
5:00 AM 44 °F - 40 °F 81% 30.11 in 9 mi North 11.5 mph - -  
5:00 AM 44.6 °F 39.2 °F 39.2 °F 81% 30.09 in 6.2 mi NNW 10.4 mph - N/A   Partly Cloudy
5:30 AM 44.6 °F 39.2 °F 39.2 °F 81% 30.09 in 6.2 mi NNW 10.4 mph - N/A   Partly Cloudy
6:00 AM 45 °F - 39 °F 73% 30.12 in 11 mi North 11.5 mph - -  
6:00 AM 44.6 °F 40.2 °F 39.2 °F 81% 30.09 in 6.2 mi NNW 8.1 mph - N/A   Partly Cloudy
6:30 AM 44.6 °F 38.8 °F 39.2 °F 81% 30.09 in 6.2 mi NNW 11.5 mph - N/A   Partly Cloudy
7:00 AM 45 °F - 39 °F 72% 30.13 in 12 mi North 10.4 mph - -   Scattered Clouds
7:00 AM 44.6 °F 38.4 °F 37.4 °F 76% 30.12 in 6.2 mi NNW 12.7 mph - N/A   Partly Cloudy
7:30 AM 44.6 °F 39.2 °F 39.2 °F 81% 30.12 in 6.2 mi NW 10.4 mph - N/A   Partly Cloudy
8:30 AM 44.6 °F 38.8 °F 39.2 °F 81% 30.15 in - NW 11.5 mph - N/A   Clear
9:00 AM 46.4 °F 42.4 °F 39.2 °F 76% 30.18 in - NW 8.1 mph - N/A   Clear
9:30 AM 51.8 °F - 42.8 °F 71% 30.18 in - WNW 6.9 mph - N/A   Clear
10:00 AM 53 °F - 44 °F 62% 30.20 in 16 mi North 8.1 mph - -   Scattered Clouds
10:00 AM 51.8 °F - 42.8 °F 71% 30.18 in - NNW 9.2 mph - N/A   Clear
10:30 AM 53.6 °F - 44.6 °F 72% 30.21 in - NNW 12.7 mph - N/A   Clear
11:00 AM 56 °F - 45 °F 57% 30.21 in 12 mi North 10.4 mph - -  
11:00 AM 55.4 °F - 44.6 °F 67% 30.18 in - NNW 12.7 mph - N/A   Clear
11:30 AM 57.2 °F - 44.6 °F 63% 30.21 in - NNW 9.2 mph - N/A   Clear
12:00 PM 60 °F - 47 °F 51% 30.22 in 19 mi NNE 5.8 mph - -  
12:00 PM 59.0 °F - 46.4 °F 63% 30.21 in - North 6.9 mph - N/A   Clear
12:30 PM 60.8 °F - 46.4 °F 59% 30.21 in - NNW 8.1 mph - N/A   Clear
1:00 PM 59.0 °F - 46.4 °F 63% 30.21 in - SW 5.8 mph - N/A   Clear
1:30 PM 59.0 °F - 48.2 °F 67% 30.21 in - SSW 12.7 mph - N/A   Clear
2:00 PM 59 °F - 51 °F 66% 30.21 in 10 mi SW 12.7 mph - -  
2:00 PM 57.2 °F - 50.0 °F 77% 30.21 in - SSW 11.5 mph - N/A   Clear
2:30 PM 59.0 °F - 51.8 °F 77% 30.18 in - SSW 9.2 mph - N/A   Clear
3:00 PM 60 °F - 51 °F 64% 30.20 in 10 mi SSW 9.2 mph - -  
3:00 PM 59.0 °F - 50.0 °F 72% 30.18 in - South 10.4 mph - N/A   Clear
3:30 PM 57.2 °F - 50.0 °F 77% 30.18 in - South 8.1 mph - N/A   Clear
4:00 PM 60 °F - 51 °F 64% 30.21 in 12 mi SSW 8.1 mph - -   Clear
4:00 PM 59.0 °F - 51.8 °F 77% 30.18 in - South 6.9 mph - N/A   Clear
4:30 PM 57.2 °F - 50.0 °F 77% 30.18 in - South 8.1 mph - N/A   Clear
5:00 PM 60 °F - 51 °F 65% 30.21 in 9 mi SSW 8.1 mph - -  
5:00 PM 57.2 °F - 50.0 °F 77% 30.18 in - South 5.8 mph - N/A   Clear
5:30 PM 57.2 °F - 51.8 °F 82% 30.21 in - South 5.8 mph - N/A   Clear
6:00 PM 58 °F - 52 °F 73% 30.23 in 8 mi SSW 8.1 mph - -  
6:00 PM 57.2 °F - 51.8 °F 82% 30.21 in - South 4.6 mph - N/A   Clear
6:30 PM 55.4 °F - 51.8 °F 88% 30.21 in 5.6 mi SSW 6.9 mph - N/A   Unknown
7:00 PM 56 °F - 52 °F 82% 30.24 in 6 mi SW 4.6 mph - -   Mist
7:00 PM 55.4 °F - 51.8 °F 88% 30.24 in 5.6 mi SSW 4.6 mph - N/A   Unknown
7:30 PM 55.4 °F - 51.8 °F 88% 30.24 in 5.0 mi SSW 4.6 mph - N/A   Unknown
8:00 PM 55 °F - 52 °F 88% 30.25 in 4 mi Calm Calm - -   Mist
8:00 PM 55.4 °F - 51.8 °F 88% 30.24 in 3.7 mi SSW 3.5 mph - N/A   Unknown
8:30 PM 53.6 °F - 51.8 °F 94% 30.24 in 4.3 mi Calm Calm - N/A   Unknown
9:00 PM 54 °F - 51 °F 87% 30.26 in 4 mi ENE 1.2 mph - -   Mist
9:00 PM 53.6 °F - 51.8 °F 94% 30.24 in 5.6 mi Calm Calm - N/A   Unknown
9:30 PM 51.8 °F - 50.0 °F 94% 30.24 in 5.6 mi WNW 2.3 mph - N/A   Partly Cloudy
10:00 PM 53 °F - 50 °F 86% 30.26 in 7 mi North 4.6 mph - -   Mist
10:00 PM 51.8 °F - 50.0 °F 94% 30.24 in 6.2 mi WNW 4.6 mph - N/A   Partly Cloudy
10:30 PM 51.8 °F - 50.0 °F 94% 30.24 in 6.2 mi WNW 3.5 mph - N/A   Partly Cloudy
11:00 PM 51 °F - 49 °F 88% 30.26 in 4 mi Calm Calm - -   Mist
11:00 PM 51.8 °F - 48.2 °F 88% 30.24 in 6.2 mi West 3.5 mph - N/A   Partly Cloudy
11:30 PM 50.0 °F - 48.2 °F 94% 30.24 in 5.6 mi WNW 2.3 mph - N/A   Partly Cloudy